Radiation Dose at Monitoring Post of Fukushima Daini Nuclear Power Station
Date,Time,MP-1(microSv/h),MP-2(microSv/h),MP-3(microSv/h),MP-4(microSv/h),MP-5(microSv/h),MP-6(microSv/h),MP-7(microSv/h),Wind Direction,Wind Velocity(m/s),Rain
2014/12/10,00:00,0.605,0.387,0.654,0.587,0.577,0.264,0.237,north-northwest,3.6,No
2014/12/10,00:10,0.604,0.386,0.655,0.587,0.576,0.264,0.236,west-northwest,6.2,No
2014/12/10,00:20,0.604,0.388,0.654,0.587,0.576,0.263,0.238,northwest,5.8,No
2014/12/10,00:30,0.608,0.387,0.654,0.588,0.576,0.264,0.236,northwest,3.6,No
2014/12/10,00:40,0.606,0.388,0.654,0.589,0.575,0.263,0.237,northwest,2.9,No
2014/12/10,00:50,0.607,0.389,0.653,0.586,0.576,0.264,0.237,northwest,3.6,No
2014/12/10,01:00,0.605,0.387,0.651,0.588,0.576,0.263,0.237,northwest,2.8,No
2014/12/10,01:10,0.606,0.387,0.654,0.589,0.578,0.264,0.236,north-northwest,2.5,No
2014/12/10,01:20,0.606,0.388,0.653,0.589,0.577,0.263,0.237,northwest,3.4,No
2014/12/10,01:30,0.605,0.386,0.654,0.587,0.575,0.263,0.237,north,4.0,No
2014/12/10,01:40,0.604,0.387,0.654,0.588,0.576,0.264,0.236,north,3.6,No
2014/12/10,01:50,0.606,0.388,0.654,0.587,0.575,0.263,0.238,north-northwest,3.1,No
2014/12/10,02:00,0.605,0.388,0.652,0.588,0.576,0.262,0.237,north-northeast,2.5,No
2014/12/10,02:10,0.607,0.387,0.654,0.588,0.577,0.264,0.237,north,2.1,No
2014/12/10,02:20,0.605,0.388,0.654,0.587,0.575,0.264,0.237,north,3.0,No
2014/12/10,02:30,0.606,0.388,0.653,0.589,0.576,0.263,0.236,north-northwest,2.8,No
2014/12/10,02:40,0.603,0.388,0.651,0.587,0.576,0.263,0.235,north-northwest,3.9,No
2014/12/10,02:50,0.605,0.388,0.653,0.587,0.575,0.263,0.236,north-northwest,3.3,No
2014/12/10,03:00,0.605,0.386,0.651,0.587,0.575,0.262,0.237,north-northwest,4.3,No
2014/12/10,03:10,0.605,0.388,0.653,0.588,0.576,0.263,0.238,north-northwest,4.9,No
2014/12/10,03:20,0.606,0.388,0.653,0.587,0.574,0.262,0.237,north-northwest,4.2,No
2014/12/10,03:30,0.603,0.388,0.651,0.587,0.575,0.263,0.235,north-northwest,3.7,No
2014/12/10,03:40,0.607,0.387,0.653,0.588,0.575,0.263,0.237,north-northwest,2.5,No
2014/12/10,03:50,0.605,0.388,0.653,0.589,0.575,0.263,0.237,west-northwest,1.8,No
2014/12/10,04:00,0.606,0.388,0.653,0.587,0.575,0.263,0.237,-,CALM,No
2014/12/10,04:10,0.607,0.388,0.654,0.588,0.575,0.262,0.237,west-northwest,0.6,No
2014/12/10,04:20,0.606,0.388,0.654,0.588,0.576,0.263,0.236,west-northwest,1.7,No
2014/12/10,04:30,0.606,0.389,0.653,0.587,0.575,0.262,0.237,northwest,3.0,No
2014/12/10,04:40,0.604,0.388,0.654,0.588,0.576,0.263,0.236,west,3.3,No
2014/12/10,04:50,0.607,0.388,0.653,0.587,0.575,0.262,0.236,west-southwest,2.1,No
2014/12/10,05:00,0.603,0.389,0.653,0.587,0.577,0.264,0.236,west,1.4,No
2014/12/10,05:10,0.606,0.387,0.653,0.587,0.577,0.263,0.236,west,2.0,No
2014/12/10,05:20,0.606,0.388,0.654,0.589,0.576,0.263,0.237,west-southwest,1.0,No
2014/12/10,05:30,0.604,0.388,0.654,0.585,0.575,0.263,0.237,west-southwest,1.9,No
2014/12/10,05:40,0.605,0.388,0.653,0.587,0.575,0.262,0.236,southwest,2.5,No
2014/12/10,05:50,0.606,0.387,0.652,0.589,0.575,0.265,0.237,west-northwest,1.2,No
2014/12/10,06:00,0.605,0.387,0.653,0.586,0.576,0.262,0.237,west-northwest,4.0,No
2014/12/10,06:10,0.605,0.387,0.652,0.588,0.576,0.263,0.236,northwest,5.3,No
2014/12/10,06:20,0.607,0.387,0.655,0.588,0.575,0.263,0.237,west-northwest,5.2,No
2014/12/10,06:30,0.604,0.387,0.654,0.588,0.574,0.262,0.237,northwest,5.0,No
2014/12/10,06:40,0.607,0.388,0.653,0.588,0.575,0.262,0.237,north-northwest,3.0,No
2014/12/10,06:50,0.604,0.387,0.652,0.589,0.576,0.262,0.237,northwest,3.8,No
2014/12/10,07:00,0.606,0.389,0.652,0.588,0.576,0.262,0.237,northwest,3.6,No
2014/12/10,07:10,0.606,0.387,0.654,0.588,0.575,0.262,0.236,northwest,3.3,No
2014/12/10,07:20,0.606,0.388,0.654,0.588,0.577,0.263,0.236,northwest,2.8,No
2014/12/10,07:30,0.606,0.387,0.654,0.588,0.576,0.262,0.235,west-northwest,2.2,No
2014/12/10,07:40,0.605,0.388,0.652,0.586,0.575,0.263,0.236,northwest,1.7,No
2014/12/10,07:50,0.604,0.388,0.652,0.588,0.576,0.263,0.236,north-northwest,3.0,No
2014/12/10,08:00,0.605,0.388,0.652,0.587,0.574,0.263,0.236,north-northwest,3.1,No
2014/12/10,08:10,0.605,0.388,0.653,0.587,0.576,0.262,0.236,northwest,2.6,No
2014/12/10,08:20,0.605,0.389,0.653,0.580,0.575,0.262,0.236,north-northwest,2.9,No
2014/12/10,08:30,0.605,0.388,0.654,0.576,0.576,0.262,0.237,north-northwest,3.0,No
2014/12/10,08:40,0.604,0.388,0.653,0.585,0.575,0.261,0.236,north-northwest,2.3,No
2014/12/10,08:50,0.605,0.389,0.653,0.587,0.575,0.262,0.236,north-northwest,3.1,No
2014/12/10,09:00,0.605,0.388,0.655,0.589,0.576,0.263,0.235,north-northwest,3.5,No
2014/12/10,09:10,0.604,0.388,0.653,0.589,0.575,0.261,0.235,north-northwest,3.9,No
2014/12/10,09:20,0.605,0.389,0.655,0.589,0.577,0.262,0.234,north-northwest,3.3,No
2014/12/10,09:30,0.606,0.388,0.653,0.588,0.576,0.262,0.236,northwest,4.2,No
2014/12/10,09:40,0.607,0.389,0.655,0.590,0.577,0.263,0.234,northwest,4.3,No
2014/12/10,09:50,0.608,0.390,0.655,0.590,0.576,0.263,0.236,northwest,3.9,No
2014/12/10,10:00,0.607,0.388,0.655,0.589,0.576,0.263,0.237,northwest,4.0,No
2014/12/10,10:10,0.606,0.388,0.656,0.590,0.576,0.261,0.236,west-northwest,1.7,No
2014/12/10,10:20,0.606,0.389,0.656,0.574,0.576,0.263,0.236,northwest,2.8,No
2014/12/10,10:30,0.606,0.389,0.655,0.575,0.576,0.264,0.237,northwest,1.3,No
2014/12/10,10:40,0.606,0.390,0.655,0.591,0.577,0.262,0.237,northwest,1.4,No
2014/12/10,10:50,0.608,0.389,0.656,0.589,0.575,0.263,0.237,north,1.1,No
2014/12/10,11:00,0.608,0.389,0.656,0.589,0.577,0.262,0.236,northwest,2.8,No
2014/12/10,11:10,0.606,0.390,0.656,0.589,0.576,0.263,0.237,west-northwest,4.2,No
2014/12/10,11:20,0.606,0.391,0.656,0.591,0.578,0.262,0.237,northwest,4.1,No
2014/12/10,11:30,0.607,0.390,0.655,0.590,0.575,0.263,0.236,northwest,3.3,No
2014/12/10,11:40,0.605,0.389,0.655,0.589,0.576,0.263,0.237,northwest,3.5,No
2014/12/10,11:50,0.608,0.390,0.654,0.590,0.578,0.262,0.238,west-northwest,2.7,No
2014/12/10,12:00,0.606,0.388,0.656,0.590,0.577,0.262,0.237,west-northwest,2.0,No
2014/12/10,12:10,0.607,0.390,0.653,0.578,0.578,0.263,0.237,west-southwest,2.2,No
2014/12/10,12:20,0.608,0.390,0.654,0.576,0.578,0.263,0.236,west-southwest,2.3,No
2014/12/10,12:30,0.608,0.390,0.656,0.577,0.577,0.262,0.237,-,CALM,No
2014/12/10,12:40,0.608,0.391,0.655,0.575,0.578,0.264,0.236,north-northeast,1.6,No
2014/12/10,12:50,0.608,0.390,0.656,0.576,0.577,0.262,0.236,north-northwest,3.3,No
2014/12/10,13:00,0.608,0.390,0.657,0.579,0.578,0.263,0.236,north-northwest,3.3,No
2014/12/10,13:10,0.607,0.390,0.657,0.590,0.576,0.263,0.237,north-northwest,3.1,No
2014/12/10,13:20,0.608,0.391,0.656,0.590,0.577,0.263,0.237,north-northwest,2.5,No
2014/12/10,13:30,0.609,0.389,0.657,0.588,0.577,0.263,0.237,northwest,2.2,No
2014/12/10,13:40,0.607,0.390,0.657,0.590,0.577,0.262,0.236,north-northwest,2.2,No
2014/12/10,13:50,0.607,0.389,0.656,0.590,0.576,0.263,0.237,north,1.6,No
2014/12/10,14:00,0.608,0.391,0.656,0.590,0.576,0.263,0.237,north-northwest,1.9,No
2014/12/10,14:10,0.607,0.390,0.657,0.590,0.576,0.263,0.236,north,1.9,No
2014/12/10,14:20,0.607,0.389,0.654,0.589,0.576,0.262,0.237,north-northeast,1.7,No
2014/12/10,14:30,0.605,0.389,0.656,0.589,0.575,0.263,0.237,north-northeast,2.0,No
2014/12/10,14:40,0.609,0.390,0.656,0.590,0.576,0.262,0.236,north,2.5,No
2014/12/10,14:50,0.609,0.391,0.654,0.590,0.576,0.263,0.236,north,2.2,No
2014/12/10,15:00,0.607,0.391,0.653,0.577,0.575,0.263,0.237,north,1.4,No
2014/12/10,15:10,0.607,0.390,0.656,0.573,0.574,0.263,0.236,north,2.9,No
2014/12/10,15:20,0.608,0.390,0.656,0.575,0.576,0.263,0.237,north,3.4,No
2014/12/10,15:30,0.606,0.390,0.657,0.575,0.576,0.263,0.238,north,3.9,No
2014/12/10,15:40,0.608,0.389,0.655,0.575,0.578,0.263,0.236,north,3.6,No
2014/12/10,15:50,0.609,0.388,0.655,0.575,0.578,0.262,0.237,north,3.7,No
2014/12/10,16:00,0.610,0.389,0.654,0.575,0.575,0.264,0.237,north,3.1,No
2014/12/10,16:10,0.608,0.388,0.654,0.574,0.577,0.263,0.239,north,2.5,No
2014/12/10,16:20,0.606,0.389,0.655,0.584,0.576,0.263,0.236,north,2.1,No
2014/12/10,16:30,0.607,0.387,0.655,0.589,0.577,0.263,0.237,northwest,1.2,No
2014/12/10,16:40,0.606,0.390,0.654,0.589,0.577,0.262,0.237,west-northwest,0.6,No
2014/12/10,16:50,0.608,0.389,0.655,0.588,0.576,0.262,0.238,northwest,1.5,No
2014/12/10,17:00,0.605,0.389,0.655,0.590,0.577,0.262,0.239,north-northwest,1.3,No
2014/12/10,17:10,0.607,0.389,0.655,0.588,0.576,0.264,0.237,north-northwest,0.5,No
2014/12/10,17:20,0.607,0.389,0.654,0.588,0.577,0.264,0.237,north,1.4,No
2014/12/10,17:30,0.607,0.389,0.656,0.587,0.576,0.262,0.238,-,CALM,No
2014/12/10,17:40,0.607,0.390,0.655,0.590,0.577,0.263,0.239,-,CALM,No
2014/12/10,17:50,0.607,0.391,0.656,0.591,0.577,0.263,0.236,-,CALM,No
2014/12/10,18:00,0.606,0.388,0.654,0.589,0.576,0.264,0.238,-,CALM,No
2014/12/10,18:10,0.606,0.389,0.655,0.590,0.577,0.264,0.237,-,CALM,No
2014/12/10,18:20,0.607,0.388,0.653,0.590,0.576,0.264,0.237,-,CALM,No
2014/12/10,18:30,0.606,0.389,0.655,0.589,0.575,0.264,0.237,-,CALM,No
2014/12/10,18:40,0.607,0.390,0.655,0.590,0.575,0.264,0.237,west,0.6,No
2014/12/10,18:50,0.606,0.389,0.655,0.588,0.576,0.262,0.237,west-northwest,0.7,No
2014/12/10,19:00,0.606,0.388,0.654,0.591,0.577,0.264,0.238,west-northwest,0.8,No
2014/12/10,19:10,0.607,0.389,0.653,0.590,0.575,0.263,0.238,northwest,0.7,No
2014/12/10,19:20,0.606,0.387,0.655,0.588,0.576,0.263,0.237,west-northwest,0.7,No
2014/12/10,19:30,0.605,0.388,0.654,0.589,0.576,0.264,0.238,-,CALM,No
2014/12/10,19:40,0.605,0.389,0.654,0.588,0.575,0.264,0.238,northwest,0.6,No
2014/12/10,19:50,0.606,0.390,0.656,0.590,0.576,0.264,0.237,-,CALM,No
2014/12/10,20:00,0.606,0.389,0.655,0.589,0.575,0.264,0.237,-,CALM,No
2014/12/10,20:10,0.606,0.387,0.654,0.590,0.576,0.264,0.237,-,CALM,No
2014/12/10,20:20,0.607,0.388,0.653,0.587,0.576,0.263,0.238,-,CALM,No
2014/12/10,20:30,0.607,0.388,0.656,0.588,0.576,0.263,0.237,southwest,1.4,No
2014/12/10,20:40,0.607,0.388,0.655,0.588,0.577,0.264,0.238,southwest,2.0,No
2014/12/10,20:50,0.607,0.389,0.657,0.588,0.578,0.264,0.238,south-southwest,3.1,No
2014/12/10,21:00,0.607,0.389,0.653,0.589,0.576,0.264,0.239,south-southwest,3.6,No
2014/12/10,21:10,0.607,0.389,0.655,0.589,0.577,0.263,0.237,south-southwest,5.6,No
2014/12/10,21:20,0.605,0.389,0.656,0.589,0.574,0.264,0.238,south-southwest,6.5,No
2014/12/10,21:30,0.606,0.389,0.655,0.590,0.577,0.264,0.238,south-southwest,7.1,No
2014/12/10,21:40,0.606,0.388,0.655,0.589,0.576,0.264,0.238,south-southwest,8.3,No
2014/12/10,21:50,0.606,0.389,0.656,0.590,0.578,0.265,0.238,south-southwest,9.2,No
2014/12/10,22:00,0.606,0.388,0.655,0.589,0.577,0.263,0.238,south-southwest,8.5,No
2014/12/10,22:10,0.605,0.390,0.655,0.588,0.576,0.263,0.239,south-southwest,7.5,No
2014/12/10,22:20,0.606,0.389,0.655,0.589,0.576,0.263,0.237,southwest,8.2,No
2014/12/10,22:30,0.607,0.390,0.657,0.589,0.576,0.264,0.237,southwest,7.3,No
2014/12/10,22:40,0.604,0.389,0.656,0.588,0.576,0.264,0.238,south-southwest,7.2,No
2014/12/10,22:50,0.604,0.389,0.655,0.588,0.577,0.262,0.238,south-southwest,7.8,No
2014/12/10,23:00,0.607,0.388,0.654,0.590,0.576,0.263,0.238,south-southwest,9.0,No
2014/12/10,23:10,0.606,0.389,0.654,0.588,0.577,0.264,0.238,south-southwest,9.2,No
2014/12/10,23:20,0.607,0.390,0.656,0.589,0.576,0.264,0.238,south-southwest,8.2,No
2014/12/10,23:30,0.606,0.389,0.654,0.588,0.574,0.263,0.237,south-southwest,7.1,No
2014/12/10,23:40,0.606,0.389,0.653,0.589,0.578,0.262,0.238,south,5.4,No
2014/12/10,23:50,0.605,0.389,0.654,0.588,0.576,0.264,0.239,south,4.7,No
